Weather History for KBXA - January, 2013

Change the Weather History Date:

Tuesday, January 15, 2013

  Actual Average Record
Temperature  
Mean Temperature 44 °F -  
Max Temperature 48 °F 57 °F 55 °F (2014)
Min Temperature 41 °F 35 °F 30 °F (2014)
Degree Days  
Heating Degree Days 20    
Moisture  
Dew Point 44 °F    
Average Humidity 100    
Maximum Humidity 100    
Minimum Humidity 100    
Precipitation  
Precipitation 0.02 in - - ()
Sea Level Pressure  
Sea Level Pressure 30.04 in    
Wind  
Wind Speed 6 mph (NNE)    
Max Wind Speed 12 mph    
Max Gust Speed -    
Visibility 4 miles    
Events Rain    
Averages and records for this station are not official NWS values.
T = Trace of Precipitation, MM = Missing Value Source: NWS Daily Summary

Daily Weather History Graph

Daily Weather History Graph

Search for Another Location

Airport or City:

Trip Planner

Search our weather history database for the weather conditions in past years. The results will help you decide how hot, cold, wet, or windy it might be!

Date:

Astronomy

Jan. 15, 2013 Rise Set
Actual Time 6:57 AM CST 5:20 PM CST
Civil Twilight 6:31 AM CST 5:46 PM CST
Nautical Twilight 6:02 AM CST 6:16 PM CST
Astronomical Twilight 5:33 AM CST 6:45 PM CST
Moon 9:24 AM CST (1/15) 9:47 PM CST (1/15)
Length of Visible Light 11h 14m
Length of Day
10h 22m
Waxing Crescent, 19% of the Moon is Illuminated
Jan 15
Waxing Crescent
Jan 18
First Quarter
Jan 26
Full
Feb 3
Last Quarter
Feb 10
New

Hourly Weather History & Observations

Time (CST) Temp. Windchill Dew Point Humidity Pressure Visibility Wind Dir Wind Speed Gust Speed Precip Events Conditions
12:15 AM 41.0 °F 37.1 °F 41.0 °F 100% 30.10 in 7.0 mi NNE 5.8 mph - 0.01 in Rain Rain
12:35 AM 41.2 °F 36.6 °F 41.2 °F 100% 30.12 in 10.0 mi North 6.9 mph - 0.01 in   Overcast
12:55 AM 41.0 °F 37.1 °F 41.0 °F 100% 30.10 in 10.0 mi NNE 5.8 mph - 0.01 in   Light Drizzle
1:35 AM 41.0 °F 38.0 °F 41.0 °F 100% 30.08 in 10.0 mi NE 4.6 mph - 0.01 in   Overcast
1:55 AM 41.2 °F 36.6 °F 41.2 °F 100% 30.09 in 10.0 mi North 6.9 mph - 0.01 in   Overcast
2:15 AM 41.2 °F 37.3 °F 41.2 °F 100% 30.08 in 10.0 mi NNE 5.8 mph - N/A   Overcast
2:35 AM 41.2 °F 36.6 °F 41.2 °F 100% 30.08 in 10.0 mi North 6.9 mph - N/A   Overcast
2:55 AM 41.2 °F 36.6 °F 41.2 °F 100% 30.08 in 10.0 mi NNE 6.9 mph - N/A   Overcast
3:15 AM 41.0 °F 35.2 °F 41.0 °F 100% 30.09 in 10.0 mi North 9.2 mph - N/A   Overcast
3:35 AM 41.0 °F 35.8 °F 41.0 °F 100% 30.08 in 10.0 mi NNE 8.1 mph - N/A   Overcast
3:55 AM 41.0 °F 37.1 °F 41.0 °F 100% 30.08 in 10.0 mi NE 5.8 mph - N/A   Overcast
4:15 AM 41.0 °F 38.0 °F 41.0 °F 100% 30.07 in 7.0 mi NNE 4.6 mph - N/A   Overcast
4:35 AM 41.0 °F 36.4 °F 41.0 °F 100% 30.06 in 5.0 mi NNE 6.9 mph - N/A   Overcast
4:55 AM 41.0 °F 37.1 °F 41.0 °F 100% 30.06 in 7.0 mi NNE 5.8 mph - N/A   Overcast
5:15 AM 41.0 °F 37.1 °F 41.0 °F 100% 30.06 in 10.0 mi NNE 5.8 mph - N/A   Overcast
5:35 AM 41.0 °F 36.4 °F 41.0 °F 100% 30.06 in 7.0 mi NNE 6.9 mph - N/A   Overcast
5:55 AM 41.0 °F 37.1 °F 41.0 °F 100% 30.05 in 7.0 mi NE 5.8 mph - N/A   Overcast
6:15 AM 41.0 °F 38.0 °F 41.0 °F 100% 30.05 in 4.0 mi NNE 4.6 mph - N/A   Overcast
6:35 AM 41.0 °F 37.1 °F 41.0 °F 100% 30.06 in 4.0 mi NNE 5.8 mph - N/A   Overcast
6:55 AM 41.2 °F 37.3 °F 41.2 °F 100% 30.07 in 5.0 mi NNE 5.8 mph - N/A   Overcast
7:15 AM 41.2 °F 36.0 °F 41.2 °F 100% 30.07 in 3.0 mi NE 8.1 mph - N/A   Drizzle
7:35 AM 41.4 °F 36.8 °F 41.4 °F 100% 30.07 in 4.0 mi NNE 6.9 mph - N/A   Overcast
7:55 AM 41.5 °F 36.4 °F 41.5 °F 100% 30.07 in 4.0 mi NE 8.1 mph - N/A   Overcast
8:15 AM 41.9 °F 39.0 °F 41.9 °F 100% 30.08 in 3.0 mi NNE 4.6 mph - N/A   Overcast
8:35 AM 41.9 °F 38.2 °F 41.9 °F 100% 30.08 in 2.0 mi NNE 5.8 mph - N/A   Overcast
8:55 AM 42.4 °F 39.6 °F 42.4 °F 100% 30.08 in 1.8 mi NE 4.6 mph - N/A   Overcast
9:15 AM 42.8 °F 41.1 °F 42.8 °F 100% 30.08 in 1.2 mi NNE 3.5 mph - N/A   Overcast
9:35 AM 43.2 °F 41.5 °F 43.2 °F 100% 30.08 in 1.2 mi ENE 3.5 mph - N/A   Overcast
9:55 AM 43.7 °F 42.1 °F 43.7 °F 100% 30.08 in 2.5 mi NE 3.5 mph - N/A   Overcast
10:15 AM 44.1 °F 42.5 °F 44.1 °F 100% 30.08 in 2.0 mi NE 3.5 mph - N/A   Overcast
10:35 AM 44.2 °F 41.8 °F 44.2 °F 100% 30.08 in 2.0 mi North 4.6 mph - N/A   Overcast
10:55 AM 44.8 °F 41.0 °F 44.8 °F 100% 30.06 in 1.8 mi North 6.9 mph - N/A   Overcast
11:15 AM 45.1 °F 42.8 °F 45.1 °F 100% 30.05 in 1.8 mi North 4.6 mph - N/A   Overcast
11:35 AM 45.3 °F 44.0 °F 45.3 °F 100% 30.05 in 1.5 mi North 3.5 mph - N/A   Overcast
11:55 AM 45.5 °F 43.2 °F 45.5 °F 100% 30.03 in 1.5 mi North 4.6 mph - N/A   Overcast
12:15 PM 45.7 °F 43.4 °F 45.7 °F 100% 30.03 in 1.5 mi North 4.6 mph - N/A   Overcast
12:35 PM 46.2 °F 43.3 °F 46.2 °F 100% 30.02 in 1.2 mi NNE 5.8 mph - N/A   Overcast
1:15 PM 46.6 °F - 46.6 °F 100% 30.00 in 0.8 mi NE 3.5 mph - N/A   Overcast
1:35 PM 47.1 °F - 47.1 °F 100% 30.00 in 0.8 mi NE 3.5 mph - N/A   Overcast
1:55 PM 47.5 °F - 47.5 °F 100% 30.00 in 1.0 mi North 3.5 mph - N/A   Overcast
2:15 PM 47.8 °F - 47.8 °F 100% 29.99 in 1.2 mi NNE 4.6 mph - N/A   Overcast
2:35 PM 48.0 °F - 48.0 °F 100% 29.98 in 1.2 mi NNE 4.6 mph - N/A   Overcast
2:55 PM 48.2 °F - 48.2 °F 100% 29.98 in 1.8 mi NNE 5.8 mph - N/A   Overcast
3:15 PM 48.4 °F - 48.4 °F 100% 29.98 in 1.8 mi NE 4.6 mph - N/A   Overcast
3:35 PM 48.6 °F - 48.6 °F 100% 29.99 in 2.0 mi North 5.8 mph - N/A   Overcast
3:55 PM 48.4 °F - 48.4 °F 100% 30.00 in 1.5 mi North 5.8 mph - N/A   Overcast
4:15 PM 48.4 °F - 48.4 °F 100% 30.00 in 2.0 mi North 6.9 mph - N/A   Overcast
4:35 PM 48.2 °F - 48.2 °F 100% 30.00 in 1.5 mi North 9.2 mph - N/A   Overcast
5:15 PM 47.3 °F - 47.3 °F 100% 30.00 in 2.5 mi North 6.9 mph - N/A   Overcast
5:35 PM 46.8 °F - 46.8 °F 100% 30.01 in 4.0 mi North 10.4 mph - N/A   Overcast
5:55 PM 46.4 °F 42.9 °F 46.4 °F 100% 30.00 in 3.0 mi North 6.9 mph - N/A   Overcast
6:15 PM 45.7 °F 42.0 °F 45.7 °F 100% 30.00 in 3.0 mi North 6.9 mph - N/A   Overcast
6:35 PM 45.5 °F 41.8 °F 45.5 °F 100% 30.01 in 4.0 mi North 6.9 mph - N/A   Overcast
6:55 PM 45.3 °F 40.6 °F 45.3 °F 100% 30.01 in 2.5 mi North 9.2 mph - N/A   Overcast
7:15 PM 44.8 °F 39.9 °F 44.8 °F 100% 30.01 in 2.0 mi North 9.2 mph - N/A   Overcast
7:35 PM 44.6 °F 41.4 °F 44.6 °F 100% 30.01 in 2.5 mi North 5.8 mph - N/A   Overcast
7:55 PM 44.6 °F 41.4 °F 44.6 °F 100% 30.00 in 3.0 mi North 5.8 mph - N/A   Overcast
8:15 PM 44.6 °F 41.4 °F 44.6 °F 100% 30.01 in 4.0 mi North 5.8 mph - N/A   Overcast
8:35 PM 44.6 °F 42.2 °F 44.6 °F 100% 30.00 in 5.0 mi North 4.6 mph - N/A   Overcast
8:55 PM 44.6 °F 40.7 °F 44.6 °F 100% 30.00 in 5.0 mi North 6.9 mph - N/A   Overcast
9:15 PM 44.2 °F 41.0 °F 44.2 °F 100% 30.01 in 5.0 mi North 5.8 mph - N/A   Overcast
9:35 PM 44.1 °F 39.5 °F 44.1 °F 100% 30.01 in 4.0 mi North 8.1 mph - N/A   Overcast
9:55 PM 43.9 °F 39.3 °F 43.9 °F 100% 30.02 in 5.0 mi NNW 8.1 mph - N/A   Overcast
10:15 PM 43.7 °F 40.3 °F 43.7 °F 100% 30.01 in 3.0 mi North 5.8 mph - N/A   Overcast
10:35 PM 43.7 °F 40.3 °F 43.7 °F 100% 30.01 in 3.0 mi North 5.8 mph - N/A   Overcast
10:55 PM 43.7 °F 37.7 °F 43.7 °F 100% 30.01 in 3.0 mi North 11.5 mph - N/A   Overcast
11:15 PM 43.0 °F 37.7 °F 43.0 °F 100% 30.02 in 3.0 mi North 9.2 mph - N/A   Overcast
11:35 PM 42.8 °F 39.3 °F 42.8 °F 100% 30.01 in 3.0 mi North 5.8 mph - N/A   Overcast
11:55 PM 42.8 °F 38.6 °F 42.8 °F 100% 30.02 in 4.0 mi North 6.9 mph - N/A   Overcast